C/2015 H2 ( PanSTARRS )

Japanese version
Home page
Updated on October 22, 2018

---------------------------------------------------------------------

* Profile

Discovery Date April 24, 2015
Magnitude 19.7 mag
Discoverer Pan-STARRS 1 telescope (Haleakala)

* Pictures

* Orbital Elements

Epoch 2016 Sept. 9.0 TT = JDT 2457640.5
T 2016 Sept. 13.24922 TT                                MPCW
q   4.9672204            (2000.0)            P               Q
z  -0.0006679      Peri.  287.90524     +0.17535708     +0.98040502
 +/-0.0000007      Node   350.69188     -0.55230759     +0.02249603
e   1.0033177      Incl.   33.70512     -0.81498848     +0.19570367
From 163 observations 2014 May 19-2018 Sept. 14, mean residual 0".6.

* Magnitudes Graph

        m1 = 7.0 + 5 log d + 10.0 log r

---------------------------------------------------------------------

The orbital elements are published on M.P.E.C. 2018-S50.
The magnitudes graphs are made with Comet for Windows.

---------------------------------------------------------------------

Copyright(C) Seiichi Yoshida (comet@aerith.net). All rights reserved.